Location: Lake Arresoe
(56.0000°N, 12.5000°E)
Time: 00:13:46
(UTC+01:00)

BlueWalker 3 - Visible Passes

Search period start: 09 December 2023 00:00
Search period end: 19 December 2023 00:00
Orbit: 490 x 503 km, 53.2° (Epoch: 08 December)

Date Brightness Start Highest point End Pass type
(mag) Time Alt. Az. Time Alt. Az. Time Alt. Az.
16 Dec 4.3 18:23:52 10° S 18:24:47 13° SSE 18:24:47 13° SSE visible
17 Dec 4.0 18:01:07 10° S 18:03:07 15° SSE 18:03:07 15° SSE visible
17 Dec 5.0 19:37:28 10° SW 19:37:40 11° SW 19:37:40 11° SW visible
18 Dec 3.9 17:38:20 10° S 17:40:40 15° SE 17:41:22 15° SE visible
18 Dec 4.3 19:14:41 10° SW 19:15:55 19° SW 19:15:55 19° SW visible
